Location: Unspecified
(0.0000°N, 0.0000°E)
Time: 03:31:14
(UTC+00:00)

Vanguard 1 - Pass Details

Date: 10 December 2017
Orbit: 649 x 3834 km, 34.3° (Epoch: 16 January)

Event Time Altitude Azimuth Distance (km) Brightness Sun altitude
Rises 09:44:05 0° 263° (W) 7,974 14.4 51.2°
Reaches altitude 10° 09:51:09 10° 273° (W) 6,882 14.2 52.6°
Maximum altitude 10:08:33 28° 325° (NW) 4,689 13.5 55.8°
Drops below altitude 10° 10:21:08 10° 19° (NNE) 4,911 13.6 58.0°
Sets 10:25:10 0° 32° (NNE) 5,461 13.8 58.7°
